Terminal Aerodrome Forecast
Issued by NWS Charleston, WV

Current Version | Previous Version | Text Only | Print | Product List | Glossary Off
Versions: 1 2 3 4 5 6 7 8 9 10 11 12 13 14 15 16 17 18 19 20 21 22

000
FTUS41 KRLX 010225 AAA
TAFPKB
TAF AMD
KPKB 010225Z 0102/0124 32005KT 5SM BR BKN015
     FM010800 34003KT 3SM BR OVC010
     FM011300 36005KT 6SM BR OVC025
     FM011800 01005KT P6SM OVC025
     FM012000 36005KT P6SM VCTS BKN025CB=

USA.gov is the U.S. government's official web portal to all federal, state and local government web resources and services.